Temperature
22 22 21 21 21 20 20 20 20 20 19 19 19 18 18 18 18 18 18 18 18 18 18 18 18 18 18 17 17 17 17 17 17 17 17 17 17 17 17 17 17 17 17
22 22 21 21 21 21 20 20 20 20 19 19 19 19 19 18 18 18 18 18 18 18 18 18 18 18 18 17 17 17 17 17 17 17 17 17 17 17 17 17 17 17 17
22 22 22 21 21 21 21 20 20 20 19 19 19 19 18 18 18 18 18 18 18 18 18 18 18 18 18 18 17 17 17 17 17 17 17 17 17 17 17 17 17 17 17
22 22 22 22 21 21 21 21 20 20 19 19 19 19 19 19 19 19 18 18 18 18 18 18 18 18 18 18 18 17 17 17 17 17 17 17 17 17 17 17 17 17 17
22 22 22 22 22 22 21 21 20 20 20 19 19 19 19 19 19 19 18 18 18 18 18 18 18 18 18 18 18 17 17 17 17 17 17 17 17 17 16 16 17 17 17
22 22 22 22 22 22 21 21 21 20 20 19 19 19 19 19 19 19 18 18 18 18 18 18 18 18 18 18 17 17 17 17 17 17 17 17 17 17 17 16 17 17 17
22 22 22 22 22 22 22 21 21 21 20 20 19 19 19 19 19 19 18 18 18 18 18 18 18 18 17 18 17 17 17 17 17 17 17 17 17 17 17 16 16 16 17
23 22 22 22 22 22 22 21 21 21 20 20 20 20 19 19 19 19 19 18 18 18 18 18 18 17 17 17 17 17 17 17 17 17 17 17 17 17 16 16 16 16 16
23 23 22 22 22 22 22 22 22 21 21 20 20 20 19 19 19 19 19 18 18 18 18 18 18 17 17 17 17 17 17 17 17 17 17 17 17 16 16 16 16 16 16
23 23 22 22 22 22 22 22 22 21 21 21 20 20 20 19 19 19 19 18 18 18 18 18 17 17 17 17 17 17 17 17 17 17 17 17 16 16 16 16 16 16 16
23 22 22 22 22 22 22 21 21 21 21 21 20 20 20 19 19 19 19 18 18 18 18 18 17 17 17 17 17 17 17 16 16 16 16 16 16 16 16 16 16 16 15
23 22 22 21 21 21 21 21 21 21 21 21 20 20 20 19 19 19 19 18 18 18 18 17 17 17 17 17 17 17 16 16 16 16 16 16 16 16 16 16 16 16 15
23 22 22 21 21 21 21 21 21 21 21 20 20 20 19 19 19 19 18 18 18 18 17 17 17 17 17 17 16 16 16 16 16 16 16 16 16 16 16 16 15 15 15
22 22 22 21 21 21 21 21 21 21 21 20 20 19 19 19 19 19 18 18 18 18 17 17 17 17 16 16 16 16 16 16 16 16 16 15 15 15 15 15 15 15 15
21 21 21 22 21 21 21 21 21 21 20 20 20 19 19 19 19 18 18 18 18 17 17 17 17 16 16 16 16 16 16 16 16 15 15 15 15 15 15 15 15 15 15
20 21 21 21 21 21 21 21 21 21 20 20 20 19 19 19 18 18 18 18 17 17 17 17 16 16 16 16 16 15 15 15 15 15 15 15 15 15 15 15 14 14 14
20 20 21 21 21 21 21 21 20 20 20 20 20 19 19 18 18 18 17 17 17 17 16 16 16 16 16 16 15 15 15 15 15 15 15 15 15 15 14 14 14 14 14
20 20 20 20 20 20 20 20 20 20 20 20 19 19 19 18 18 17 17 17 16 16 16 16 16 15 15 15 15 15 15 15 15 15 15 14 14 14 14 14 14 14 14
20 20 20 20 20 20 20 19 19 19 19 19 19 18 18 18 17 17 17 16 16 16 16 15 15 15 15 15 15 15 15 14 14 14 14 14 14 14 14 14 14 14 13
19 19 19 19 19 19 19 19 19 19 18 18 18 18 17 17 17 17 16 16 16 15 15 15 15 15 15 15 14 14 14 14 14 14 14 14 14 13 13 13 13 13 13
18 18 18 18 18 18 18 18 18 18 18 18 18 17 17 17 16 16 16 15 15 15 15 15 14 14 14 14 14 14 14 14 14 13 13 13 13 13 13 13 13 13 13
18 18 18 18 18 17 17 17 18 18 17 17 17 17 16 16 16 15 15 15 15 14 14 14 14 14 14 14 14 13 13 13 13 13 13 13 12 12 12 12 12 12 12
17 17 17 17 17 17 17 17 17 17 17 16 16 16 16 15 15 15 14 14 14 14 14 14 14 13 13 13 13 13 13 13 12 12 12 12 12 12 12 12 12 12 12
17 17 17 17 16 16 16 16 16 16 16 16 15 15 15 15 14 14 14 14 14 13 13 13 13 13 13 13 13 12 12 12 12 12 12 12 12 12 12 11 11 11 11
16 16 16 16 16 16 15 15 15 15 15 15 15 14 14 14 14 14 14 13 13 13 13 13 13 13 12 12 12 12 12 12 12 12 12 12 11 11 11 11 11 11 11
15 15 15 15 15 15 15 15 15 15 14 14 14 14 14 13 13 13 13 13 13 12 12 12 12 12 12 12 12 12 12 12 11 11 11 11 11 11 10 10 10 10 10
Wind_Speed
9 8 9 9 9 8 8 9 8 7 6 4 4 3 3 2 2 3 5 6 6 6 5 3 3 3 3 3 3 2 2 1 1 1 1 2 2 2 2 2 2 3 5
8 10 10 10 10 10 9 9 9 8 7 6 4 3 3 2 2 2 3 5 5 5 5 4 4 3 3 3 3 3 2 1 2 2 1 1 2 2 2 1 2 3 3
13 12 11 11 11 11 11 11 10 8 8 6 4 3 3 2 2 1 1 2 4 5 5 4 4 3 4 3 4 4 4 3 2 2 2 2 2 2 2 2 2 2 2
11 11 12 12 12 13 11 10 9 8 7 7 6 6 5 4 4 3 3 2 3 4 5 5 4 4 3 3 4 4 4 4 3 2 2 2 2 2 1 2 2 2 2
14 14 14 14 13 13 12 10 9 8 7 7 8 7 5 4 3 2 3 2 2 3 3 4 4 3 3 3 3 3 4 4 4 3 2 2 1 2 2 2 2 2 2
14 14 13 11 11 11 11 10 9 8 8 8 7 7 7 6 5 4 3 2 1 2 3 3 3 4 3 4 4 4 4 4 4 3 3 3 2 3 3 3 3 3 2
13 13 14 13 13 13 13 12 11 10 9 9 8 8 8 7 7 6 5 4 3 2 3 3 3 3 4 4 3 4 4 5 5 4 4 4 4 3 3 3 3 3 2
11 13 15 15 15 15 14 13 13 11 10 10 9 8 7 6 6 6 5 5 4 4 3 3 3 3 4 4 3 3 4 4 5 5 5 4 4 4 4 3 3 2 2
10 11 13 14 15 15 14 14 13 11 10 10 9 8 7 7 6 5 5 4 4 3 3 3 3 3 3 3 3 3 3 3 4 4 4 4 4 4 4 4 4 3 3
8 10 11 13 13 13 12 12 12 12 10 10 10 9 8 7 6 6 6 5 4 3 3 3 3 3 3 3 3 2 2 3 3 3 3 4 4 3 3 4 4 4 4
7 9 9 11 11 10 10 11 10 9 9 9 8 7 7 7 6 6 6 5 4 4 4 4 4 4 3 3 3 3 3 3 3 3 3 4 3 3 3 3 4 4 4
5 7 8 8 9 9 10 10 10 10 10 9 8 8 7 6 6 6 5 5 5 4 4 4 3 3 3 3 4 4 4 4 3 3 3 4 3 3 3 3 4 4 5
3 5 7 8 9 9 9 10 10 11 10 9 8 8 7 7 7 6 5 5 5 4 4 4 4 4 4 4 4 4 3 3 4 4 4 4 3 4 3 3 4 4 4
3 5 6 8 9 9 9 10 10 9 9 9 9 9 8 8 7 6 6 5 5 5 4 4 4 4 3 3 3 3 3 3 3 4 4 4 5 5 4 4 4 4 3
3 5 6 6 7 8 8 9 8 8 8 9 9 9 8 7 7 6 6 6 5 6 5 4 4 3 3 3 3 3 3 3 4 4 4 5 5 5 4 3 4 4 3
4 5 5 5 7 8 9 8 8 8 8 9 9 8 7 7 7 7 6 6 5 5 4 5 5 4 4 4 4 3 3 3 4 4 4 4 4 4 4 4 4 5 4
4 4 4 5 6 7 8 9 9 8 9 9 8 8 8 8 7 7 6 6 6 5 5 5 5 5 5 5 5 5 3 4 4 4 4 4 3 3 3 3 2 3 4
4 3 3 3 3 3 4 6 7 7 8 8 8 7 7 7 7 6 7 6 5 5 5 5 5 4 5 5 5 5 3 3 3 4 4 4 4 3 3 3 2 3 3
4 4 4 4 2 2 3 5 6 6 6 7 7 7 7 7 6 7 6 5 5 5 5 4 4 5 5 5 5 4 2 2 3 3 3 4 4 4 3 3 3 3 3
2 3 4 4 3 2 3 5 5 5 5 6 6 6 6 7 7 7 5 4 4 5 5 4 4 5 4 4 4 4 2 2 2 2 2 3 3 2 3 3 4 4 4
2 4 5 4 3 2 3 4 4 4 4 4 4 4 5 6 6 5 4 4 4 3 3 3 2 2 3 3 4 5 3 3 2 1 2 2 1 2 2 3 4 5 4
3 4 5 3 2 3 4 3 3 2 2 2 3 3 4 4 4 5 4 4 4 4 3 2 1 0 1 1 3 4 4 3 2 2 2 2 2 2 2 2 2 3 3
3 3 5 4 3 2 4 3 2 2 3 3 3 3 3 3 4 5 5 4 4 3 2 2 1 1 1 1 0 2 3 3 2 1 1 1 2 1 1 0 1 1 1
2 3 5 4 2 2 2 2 2 3 3 3 3 3 4 3 3 4 4 4 4 3 3 3 2 1 0 1 1 0 1 1 1 0 2 3 3 2 2 2 1 0 1
2 3 4 4 3 2 2 1 2 4 4 3 3 3 3 4 4 3 3 3 3 4 4 3 3 3 2 2 2 2 1 1 2 2 2 2 2 2 1 1 1 0 0
2 3 3 3 3 3 2 1 3 4 4 3 3 3 3 3 4 4 3 4 3 4 4 4 4 3 3 3 3 2 2 2 3 3 2 1 1 1 1 1 1 1 1
Wind_Direction
206 191 186 184 176 175 177 182 183 182 169 164 168 169 187 187 182 193 199 198 196 191 187 193 182 176 180 186 175 161 165 186 145 107 335 324 313 284 266 258 246 244 240
198 192 186 182 184 184 185 186 187 183 182 183 179 176 167 172 184 189 190 201 198 193 193 189 192 186 182 182 179 168 166 190 173 154 146 318 329 319 285 258 239 253 250
202 195 189 189 188 190 193 195 193 187 184 174 151 132 112 101 136 171 195 204 195 191 191 190 190 188 187 197 199 189 185 196 202 181 166 175 238 299 314 280 262 258 245
203 196 192 191 193 197 195 193 189 187 183 171 166 163 169 182 193 188 189 185 185 189 193 195 193 193 193 200 209 199 195 187 203 202 206 199 179 195 297 312 286 268 256
202 197 196 195 195 192 190 189 184 187 182 174 175 173 179 186 168 151 158 175 179 194 199 194 188 196 201 206 203 191 195 200 203 199 192 204 211 205 214 273 301 305 275
204 200 197 190 188 184 184 182 181 189 184 178 179 180 180 174 162 167 176 186 188 203 209 197 194 203 206 209 210 202 198 204 204 204 196 190 191 203 205 233 260 278 281
202 197 192 188 186 185 186 184 183 189 186 182 187 189 185 181 184 187 190 191 202 216 222 210 204 211 213 212 204 201 208 207 205 209 213 212 218 200 196 212 241 255 273
199 197 194 189 187 188 187 184 186 190 187 187 192 191 187 190 196 193 190 197 208 219 217 206 209 217 215 212 200 203 215 211 214 221 216 218 220 209 207 204 208 251 271
198 194 191 188 185 187 189 187 186 188 189 190 189 190 191 193 194 189 189 197 205 211 201 197 199 214 215 207 196 211 219 209 218 223 217 220 221 212 214 209 203 208 251
194 189 189 189 188 188 185 182 184 188 189 190 193 196 194 195 192 186 194 200 204 204 190 194 201 209 214 206 200 217 224 213 227 224 219 226 227 215 212 211 212 212 219
196 191 190 188 184 177 173 176 179 181 186 189 187 185 187 188 185 190 197 199 197 193 198 202 206 205 209 209 205 216 219 217 234 234 225 232 223 219 218 212 212 214 212
194 183 173 170 171 173 173 174 178 185 191 186 180 184 181 178 183 192 195 191 193 193 196 198 203 212 216 213 211 223 228 223 229 240 232 241 231 227 227 218 221 222 217
176 160 161 168 174 175 176 177 181 190 188 180 180 182 184 184 191 196 194 192 195 196 196 196 206 215 219 220 223 224 230 231 234 238 235 241 231 235 232 223 228 232 228
168 164 169 176 178 179 179 180 188 186 181 177 183 189 193 193 196 196 194 194 194 195 200 204 212 215 216 218 223 228 232 238 244 243 239 240 232 232 230 228 228 224 218
170 180 184 181 178 181 184 184 182 177 174 176 187 196 195 191 190 193 196 197 197 201 200 201 211 215 216 222 216 223 235 241 252 253 247 244 231 228 224 228 223 211 207
202 195 189 181 184 188 189 187 183 177 171 179 191 194 192 191 194 195 192 195 200 202 199 205 208 215 228 223 212 210 227 239 246 255 259 253 241 238 234 232 218 204 204
212 204 194 191 192 193 188 185 185 177 176 183 189 190 193 196 199 198 193 199 203 198 204 212 213 221 228 218 214 217 221 235 245 249 258 263 262 248 248 249 232 217 208
196 197 192 192 194 184 178 176 172 173 177 182 191 193 194 199 197 195 202 206 202 202 209 215 217 222 232 218 214 217 215 235 250 253 250 249 262 257 233 223 236 248 243
186 180 175 171 160 152 159 161 165 170 181 191 197 199 196 197 196 198 204 203 196 202 207 210 213 222 236 223 218 202 192 225 261 271 265 252 249 254 217 202 219 246 262
159 150 133 115 121 138 135 145 157 162 190 204 204 200 194 195 200 201 198 193 191 202 202 211 213 215 229 228 214 189 183 206 256 290 294 277 253 238 200 207 212 228 247
146 130 119 123 137 139 124 140 155 181 203 197 186 183 187 189 191 189 183 176 183 186 193 199 211 212 222 225 211 193 190 199 220 262 294 297 264 218 201 203 216 227 230
122 131 130 131 129 135 132 145 177 200 177 163 165 173 176 183 178 165 167 166 166 172 179 173 194 278 253 225 220 209 202 190 191 228 264 282 274 228 212 212 230 219 201
131 138 139 130 117 130 141 161 202 168 144 147 167 172 166 166 164 164 165 161 158 168 178 175 186 250 311 345 257 206 198 191 195 229 241 297 322 334 0 328 249 203 185
134 135 132 129 133 136 140 170 166 140 138 151 164 161 154 149 149 157 162 165 170 172 173 177 188 205 230 28 38 61 135 140 149 138 67 50 42 41 43 36 39 329 219
140 144 151 158 170 160 148 141 140 137 140 145 148 149 152 150 145 142 152 162 174 178 179 186 182 178 198 233 192 165 179 184 175 134 86 55 37 28 12 10 20 11 30
151 150 152 167 178 167 159 153 151 148 147 148 156 157 147 141 138 129 99 64 87 109 135 160 171 182 185 174 165 164 152 138 134 114 93 59 30 317 297 296 307 307 296
Height
1510 1514 1516 1519 1522 1524 1526 1528 1530 1532 1534 1535 1537 1538 1540 1542 1543 1545 1546 1548 1549 1551 1552 1553 1554 1555 1556 1557 1557 1558 1558 1559 1560 1560 1560 1560 1560 1560 1560 1561 1561 1562 1562
1508 1511 1513 1517 1519 1521 1524 1526 1528 1530 1532 1534 1536 1538 1539 1541 1543 1544 1545 1547 1549 1550 1551 1552 1553 1554 1555 1555 1556 1557 1557 1558 1558 1559 1559 1559 1560 1559 1559 1559 1559 1560 1560
1504 1507 1510 1513 1516 1519 1522 1524 1526 1529 1531 1533 1535 1537 1538 1540 1541 1543 1544 1546 1547 1549 1550 1551 1552 1552 1553 1554 1554 1555 1555 1556 1557 1557 1558 1558 1557 1557 1557 1557 1557 1558 1558
1500 1503 1506 1510 1513 1516 1519 1522 1525 1527 1530 1532 1533 1535 1536 1537 1539 1542 1543 1545 1546 1548 1549 1550 1550 1551 1552 1552 1552 1553 1554 1554 1554 1555 1556 1556 1556 1556 1555 1555 1555 1556 1556
1495 1498 1501 1505 1509 1513 1516 1520 1522 1525 1527 1530 1531 1533 1535 1537 1539 1541 1542 1543 1545 1546 1547 1548 1549 1549 1550 1550 1550 1551 1551 1552 1552 1553 1553 1553 1554 1554 1554 1553 1553 1553 1553
1489 1493 1497 1501 1505 1509 1513 1517 1520 1522 1525 1527 1529 1531 1533 1535 1537 1539 1541 1542 1543 1545 1545 1546 1547 1547 1548 1548 1548 1549 1549 1549 1549 1550 1550 1551 1551 1551 1551 1551 1550 1550 1551
1484 1488 1492 1496 1500 1504 1508 1512 1516 1519 1522 1524 1526 1529 1531 1533 1535 1537 1539 1540 1542 1543 1543 1544 1544 1545 1545 1546 1546 1546 1546 1546 1547 1547 1547 1548 1548 1548 1549 1549 1548 1548 1548
1479 1483 1486 1490 1495 1500 1504 1508 1512 1516 1519 1521 1524 1526 1528 1531 1533 1535 1537 1538 1539 1540 1541 1542 1542 1543 1543 1543 1543 1543 1543 1543 1543 1544 1544 1544 1545 1545 1546 1546 1546 1545 1545
1475 1478 1482 1486 1491 1495 1500 1504 1508 1512 1515 1518 1521 1524 1526 1528 1530 1532 1534 1536 1537 1538 1539 1539 1539 1540 1541 1541 1541 1541 1540 1541 1541 1541 1541 1541 1541 1542 1542 1543 1543 1544 1542
1472 1475 1479 1482 1487 1491 1496 1500 1504 1508 1512 1515 1518 1521 1523 1525 1527 1529 1531 1533 1534 1535 1536 1537 1537 1537 1538 1538 1538 1538 1538 1538 1538 1538 1538 1538 1538 1538 1539 1539 1540 1540 1540
1470 1473 1476 1479 1484 1489 1493 1497 1501 1504 1508 1512 1514 1517 1520 1522 1524 1526 1528 1530 1531 1532 1533 1534 1534 1535 1535 1535 1535 1535 1535 1535 1535 1535 1535 1535 1535 1535 1535 1535 1536 1536 1536
1469 1471 1474 1478 1482 1486 1489 1494 1497 1501 1504 1508 1511 1514 1516 1519 1521 1523 1525 1527 1528 1529 1530 1531 1531 1532 1532 1532 1532 1532 1532 1532 1532 1532 1532 1532 1532 1532 1532 1532 1532 1532 1533
1468 1471 1473 1476 1480 1483 1487 1490 1494 1497 1501 1505 1508 1510 1513 1515 1518 1520 1522 1524 1525 1526 1527 1528 1528 1528 1529 1529 1529 1529 1529 1529 1529 1529 1528 1528 1529 1529 1529 1528 1528 1529 1529
1467 1469 1471 1474 1477 1481 1484 1487 1490 1494 1498 1501 1504 1507 1509 1512 1514 1516 1518 1520 1521 1522 1523 1524 1525 1525 1526 1526 1526 1526 1526 1526 1525 1525 1525 1525 1525 1525 1525 1525 1525 1525 1525
1465 1467 1469 1472 1475 1478 1481 1484 1487 1491 1495 1498 1500 1503 1506 1508 1510 1512 1514 1515 1517 1518 1519 1520 1521 1521 1522 1522 1522 1522 1522 1522 1522 1521 1521 1521 1521 1521 1521 1520 1520 1521 1520
1464 1466 1468 1470 1472 1475 1478 1482 1484 1488 1491 1494 1497 1500 1502 1504 1506 1507 1509 1511 1512 1513 1514 1515 1516 1517 1517 1518 1518 1518 1518 1518 1518 1517 1517 1517 1517 1517 1517 1516 1516 1517 1517
1463 1465 1466 1468 1471 1473 1475 1478 1482 1485 1487 1490 1493 1496 1498 1500 1501 1503 1504 1506 1507 1509 1510 1511 1512 1512 1513 1513 1514 1514 1514 1514 1514 1513 1513 1513 1513 1513 1512 1512 1512 1512 1512
1462 1464 1465 1468 1470 1472 1474 1476 1479 1482 1484 1486 1489 1492 1494 1495 1496 1498 1499 1501 1503 1504 1505 1507 1507 1508 1509 1510 1510 1510 1510 1510 1509 1509 1509 1508 1508 1508 1508 1508 1507 1507 1507
1460 1462 1464 1466 1467 1469 1471 1474 1476 1479 1481 1483 1485 1487 1489 1490 1492 1493 1495 1497 1498 1500 1501 1502 1503 1504 1505 1506 1506 1506 1506 1505 1505 1505 1505 1504 1504 1504 1504 1503 1502 1503 1503
1459 1460 1462 1464 1466 1468 1470 1471 1473 1474 1477 1478 1481 1483 1485 1486 1488 1489 1491 1492 1494 1495 1496 1497 1498 1500 1500 1501 1502 1502 1501 1501 1501 1501 1501 1500 1500 1499 1499 1498 1498 1497 1498
1457 1459 1461 1463 1465 1466 1467 1468 1470 1471 1474 1476 1478 1479 1481 1482 1483 1485 1487 1488 1490 1491 1492 1493 1494 1495 1496 1497 1497 1498 1498 1498 1497 1497 1497 1496 1496 1495 1495 1494 1494 1494 1494
1455 1457 1459 1461 1463 1464 1465 1466 1467 1469 1471 1473 1474 1475 1477 1478 1479 1481 1482 1484 1485 1486 1488 1489 1490 1491 1491 1492 1493 1494 1494 1494 1494 1493 1493 1493 1492 1491 1491 1490 1490 1490 1490
1453 1455 1457 1459 1461 1462 1463 1464 1465 1467 1468 1469 1470 1472 1473 1475 1476 1477 1478 1479 1481 1482 1483 1485 1486 1487 1487 1488 1489 1490 1491 1491 1491 1490 1490 1489 1489 1488 1488 1487 1487 1487 1487
1452 1454 1455 1457 1458 1460 1461 1462 1464 1465 1466 1466 1467 1469 1470 1471 1472 1473 1475 1476 1477 1479 1480 1481 1482 1483 1484 1485 1486 1487 1487 1488 1488 1488 1487 1487 1486 1486 1485 1485 1485 1484 1484
1452 1453 1454 1455 1456 1458 1459 1460 1461 1462 1463 1464 1465 1466 1467 1468 1469 1470 1472 1473 1474 1476 1477 1478 1479 1480 1481 1482 1483 1484 1484 1485 1485 1484 1484 1484 1483 1483 1483 1483 1482 1482 1481
1451 1452 1452 1453 1455 1456 1457 1458 1459 1460 1461 1461 1462 1463 1464 1466 1467 1468 1470 1471 1473 1475 1476 1477 1478 1479 1480 1481 1482 1482 1482 1482 1482 1482 1481 1481 1481 1481 1481 1480 1479 1479 1478